Winnemucca, NV

2:12 AM PDT on August 18, 2017 (GMT -0700)
Winnemucca Municipal

Weather History for KWMC - September, 2013

Change the Weather History Date:

Monday, September 2, 2013

  Actual Average Record
Temperature  
Mean Temperature 76 °F 65 °F  
Max Temperature 89 °F 86 °F 103 °F (1950)
Min Temperature 62 °F 44 °F 26 °F (1973)
Degree Days  
Heating Degree Days 0 2  
Month to date heating degree days 0 4  
Since 1 July heating degree days 0 34  
Cooling Degree Days 11 2  
Month to date cooling degree days 19 5  
Year to date cooling degree days 700 515  
Growing Degree Days 26 (Base 50)    
Moisture  
Dew Point 49 °F    
Average Humidity 45    
Maximum Humidity 68    
Minimum Humidity 21    
Precipitation  
Precipitation T in 0.01 in 0.35 in (2000)
Month to date precipitation T 0.02  
Year to date precipitation 2.41 5.38  
Snow  
Snow 0.00 in 0.00 in 0.00 in (1877)
Month to date snowfall 0.0 0.0  
Since 1 July snowfall T 0.0  
Since 1 September snowfall 0.0 0.0  
Snow Depth 0.00 in    
Sea Level Pressure  
Sea Level Pressure 29.86 in    
Wind  
Wind Speed 7 mph (WSW)    
Max Wind Speed 21 mph    
Max Gust Speed 26 mph    
Visibility 10 miles    
Events Rain , Thunderstorm    
T = Trace of Precipitation, MM = Missing Value Source: NWS Daily Summary

Daily Weather History Graph

Daily Weather History Graph

Search for Another Location

Airport or City:

Trip Planner

Search our weather history database for the weather conditions in past years. The results will help you decide how hot, cold, wet, or windy it might be!

Date:

Astronomy

Sep. 02, 2013 Rise Set
Actual Time 6:19 AM PDT 7:21 PM PDT
Civil Twilight 5:51 AM PDT 7:49 PM PDT
Nautical Twilight 5:17 AM PDT 8:22 PM PDT
Astronomical Twilight 4:42 AM PDT 8:57 PM PDT
Moon 3:40 AM PDT (9/2) 5:38 PM PDT (9/2)
Length of Visible Light 13h 58m
Length of Day
13h 02m
Waning Crescent, 7% of the Moon is Illuminated
Sep 2
Waning Crescent
Sep 5
New
Sep 12
First Quarter
Sep 19
Full
Sep 26
Last Quarter

Hourly Weather History & Observations

Time (PDT) Temp. Dew Point Humidity Pressure Visibility Wind Dir Wind Speed Gust Speed Precip Events Conditions
12:56 AM 73.0 °F 42.1 °F 33% 29.83 in 10.0 mi WSW 3.5 mph - N/A   Clear
1:56 AM 73.0 °F 48.9 °F 42% 29.84 in 10.0 mi South 8.1 mph - N/A   Clear
2:56 AM 73.0 °F 48.9 °F 42% 29.83 in 10.0 mi South 4.6 mph - N/A   Scattered Clouds
3:56 AM 70.0 °F 48.9 °F 47% 29.82 in 10.0 mi SSW 3.5 mph - N/A   Clear
4:56 AM 66.9 °F 48.0 °F 51% 29.84 in 10.0 mi Calm Calm - N/A   Clear
5:56 AM 66.0 °F 48.0 °F 52% 29.86 in 10.0 mi Calm Calm - N/A   Clear
6:56 AM 64.0 °F 48.0 °F 56% 29.87 in 10.0 mi SE 5.8 mph - N/A   Clear
7:56 AM 71.1 °F 48.9 °F 45% 29.88 in 10.0 mi South 3.5 mph - N/A   Clear
8:56 AM 77.0 °F 48.9 °F 37% 29.88 in 10.0 mi South 9.2 mph - N/A   Clear
9:56 AM 80.1 °F 48.9 °F 34% 29.88 in 10.0 mi WSW 5.8 mph - N/A   Clear
10:56 AM 82.9 °F 48.0 °F 29% 29.87 in 10.0 mi Variable 3.5 mph - N/A   Clear
11:56 AM 84.9 °F 48.0 °F 28% 29.85 in 10.0 mi Variable 4.6 mph - N/A   Clear
12:56 PM 84.9 °F 46.9 °F 27% 29.84 in 10.0 mi WSW 5.8 mph - N/A   Scattered Clouds
1:56 PM 86.0 °F 46.9 °F 26% 29.82 in 10.0 mi West 6.9 mph - N/A   Mostly Cloudy
2:56 PM 86.0 °F 48.0 °F 27% 29.79 in 10.0 mi NW 6.9 mph - N/A   Clear
3:56 PM 86.0 °F 48.0 °F 27% 29.78 in 10.0 mi WNW 6.9 mph - N/A   Mostly Cloudy
4:56 PM 89.1 °F 44.1 °F 21% 29.78 in 9.0 mi WSW 10.4 mph 19.6 mph N/A   Scattered Clouds
5:56 PM 82.9 °F 48.0 °F 29% 29.79 in 10.0 mi West 15.0 mph 24.2 mph 0.00 in   Scattered Clouds
6:56 PM 75.0 °F 55.0 °F 50% 29.84 in 8.0 mi NNW 15.0 mph 19.6 mph 0.00 in Rain Light Rain
7:31 PM 73.4 °F 53.6 °F 50% 30.01 in 10.0 mi NNW 10.4 mph - 0.00 in Thunderstorm Thunderstorm
7:46 PM 73.4 °F 53.6 °F 50% 30.01 in 10.0 mi NNW 9.2 mph - 0.00 in   Partly Cloudy
7:56 PM 73.9 °F 52.0 °F 46% 29.87 in 9.0 mi NNW 10.4 mph - 0.00 in   Scattered Clouds
8:56 PM 70.0 °F 57.0 °F 63% 29.90 in 10.0 mi SSW 5.8 mph - 0.00 in Rain Light Rain
9:56 PM 70.0 °F 54.0 °F 57% 29.90 in 10.0 mi WNW 4.6 mph - 0.00 in   Clear
10:56 PM 68.0 °F 54.0 °F 61% 29.91 in 10.0 mi South 10.4 mph - 0.00 in   Partly Cloudy
11:56 PM 66.0 °F 55.9 °F 70% 29.91 in 10.0 mi SSE 10.4 mph - N/A   Clear